| time (UTC) | temp C | wind direction | speed KPH | gust KPH | rain 1hr cm | rain 24hr cm | rain mn cm | humidity % | barometer mb |
| 20260904200517 | 26 | 163 | 29.0 | 51.5 | 0.00 | 0.00 | 0.00 | 28 | 1000.4 |
| 20260904200013 | 26 | 163 | 29.0 | 51.5 | 0.00 | 0.00 | 0.00 | 26 | 1000.6 |
| 20260904195513 | 26 | 170 | 32.2 | 61.2 | 0.00 | 0.00 | 0.00 | 26 | 1000.5 |
| 20260904195012 | 26 | 188 | 35.4 | 61.2 | 0.00 | 0.00 | 0.00 | 26 | 1000.5 |
| 20260904194512 | 26 | 141 | 29.0 | 49.9 | 0.00 | 0.00 | 0.00 | 26 | 1000.5 |
| 20260904194012 | 26 | 163 | 37.0 | 56.3 | 0.00 | 0.00 | 0.00 | 25 | 1000.6 |
| 20260904193512 | 27 | 142 | 38.6 | 56.3 | 0.00 | 0.00 | 0.00 | 25 | 1000.6 |
| 20260904193011 | 27 | 141 | 32.2 | 46.7 | 0.00 | 0.00 | 0.00 | 24 | 1000.6 |
| 20260904192510 | 27 | 179 | 33.8 | 46.7 | 0.00 | 0.00 | 0.00 | 25 | 1000.7 |
| 20260904192010 | 26 | 165 | 37.0 | 53.1 | 0.00 | 0.00 | 0.00 | 26 | 1000.8 |
| 20260904191511 | 26 | 132 | 33.8 | 53.1 | 0.00 | 0.00 | 0.00 | 26 | 1000.7 |
| 20260904191009 | 26 | 151 | 30.6 | 49.9 | 0.00 | 0.00 | 0.00 | 28 | 1000.8 |
| 20260904190509 | 26 | 132 | 35.4 | 49.9 | 0.00 | 0.00 | 0.00 | 28 | 1000.9 |
| 20260904190010 | 26 | 150 | 25.7 | 49.9 | 0.00 | 0.00 | 0.00 | 27 | 1001.1 |
| 20260904185507 | 25 | 139 | 35.4 | 54.7 | 0.00 | 0.00 | 0.00 | 28 | 1001.2 |
| 20260904185007 | 25 | 149 | 29.0 | 54.7 | 0.00 | 0.00 | 0.00 | 29 | 1001.3 |
| 20260904184507 | 25 | 122 | 29.0 | 49.9 | 0.00 | 0.00 | 0.00 | 28 | 1001.2 |
| 20260904184007 | 25 | 164 | 33.8 | 49.9 | 0.00 | 0.00 | 0.00 | 27 | 1001.2 |
| 20260904183506 | 25 | 150 | 41.8 | 53.1 | 0.00 | 0.00 | 0.00 | 26 | 1001.3 |
| 20260904183012 | 26 | 159 | 32.2 | 46.7 | 0.00 | 0.00 | 0.00 | 27 | 1001.3 |
| 20260904182505 | 26 | 184 | 33.8 | 46.7 | 0.00 | 0.00 | 0.00 | 26 | 1001.4 |
| 20260904182005 | 25 | 134 | 38.6 | 49.9 | 0.00 | 0.00 | 0.00 | 28 | 1001.3 |
| 20260904181508 | 26 | 181 | 38.6 | 48.3 | 0.00 | 0.00 | 0.00 | 26 | 1001.4 |
| 20260904181008 | 26 | 151 | 29.0 | 48.3 | 0.00 | 0.00 | 0.00 | 27 | 1001.3 |
| 20260904180503 | 25 | 182 | 38.6 | 53.1 | 0.00 | 0.00 | 0.00 | 26 | 1001.5 |
| 20260904180004 | 25 | 165 | 37.0 | 56.3 | 0.00 | 0.00 | 0.00 | 27 | 1001.6 |
| 20260904175505 | 25 | 145 | 41.8 | 56.3 | 0.00 | 0.00 | 0.00 | 28 | 1001.5 |
| 20260904175002 | 25 | 161 | 35.4 | 56.3 | 0.00 | 0.00 | 0.00 | 27 | 1001.6 |
| 20260904174501 | 25 | 173 | 35.4 | 49.9 | 0.00 | 0.00 | 0.00 | 27 | 1001.6 |
| 20260904174001 | 25 | 182 | 41.8 | 51.5 | 0.00 | 0.00 | 0.00 | 27 | 1001.6 |
| 20260904173503 | 25 | 145 | 33.8 | 49.9 | 0.00 | 0.00 | 0.00 | 29 | 1001.6 |
| 20260904173003 | 25 | 168 | 35.4 | 53.1 | 0.00 | 0.00 | 0.00 | 29 | 1001.6 |
| 20260904172503 | 25 | 164 | 35.4 | 56.3 | 0.00 | 0.00 | 0.00 | 29 | 1001.5 |
| 20260904172001 | 25 | 169 | 32.2 | 56.3 | 0.00 | 0.00 | 0.00 | 30 | 1001.6 |
| 20260904171602 | 25 | 147 | 40.2 | 57.9 | 0.00 | 0.00 | 0.00 | 28 | 1001.6 |
| 20260904171500 | 25 | 163 | 35.4 | 57.9 | 0.00 | 0.00 | 0.00 | 29 | 1001.6 |
| 20260904171100 | 24 | 145 | 38.6 | 57.9 | 0.00 | 0.00 | 0.00 | 29 | 1001.6 |
| 20260904170600 | 25 | 183 | 37.0 | 49.9 | 0.00 | 0.00 | 0.00 | 27 | 1001.6 |
| 20260904170100 | 24 | 165 | 40.2 | 62.8 | 0.00 | 0.00 | 0.00 | 29 | 1001.5 |
| 20260904165600 | 24 | 158 | 41.8 | 62.8 | 0.00 | 0.00 | 0.00 | 28 | 1001.6 |
| 20260904165100 | 25 | 138 | 38.6 | 57.9 | 0.00 | 0.00 | 0.00 | 28 | 1001.6 |
| 20260904164558 | 25 | 182 | 33.8 | 46.7 | 0.00 | 0.00 | 0.00 | 27 | 1001.7 |
| 20260904164057 | 25 | 180 | 32.2 | 49.9 | 0.00 | 0.00 | 0.00 | 26 | 1001.7 |
| 20260904163557 | 24 | 171 | 32.2 | 49.9 | 0.00 | 0.00 | 0.00 | 27 | 1001.6 |
| 20260904163100 | 24 | 132 | 33.8 | 51.5 | 0.00 | 0.00 | 0.00 | 26 | 1001.8 |
| 20260904162558 | 24 | 182 | 37.0 | 49.9 | 0.00 | 0.00 | 0.00 | 24 | 1001.8 |
| 20260904162057 | 24 | 159 | 29.0 | 45.1 | 0.00 | 0.00 | 0.00 | 24 | 1001.8 |
| 20260904161609 | 24 | 165 | 35.4 | 45.1 | 0.00 | 0.00 | 0.00 | 24 | 1001.8 |
| 20260904161056 | 24 | 165 | 30.6 | 45.1 | 0.00 | 0.00 | 0.00 | 24 | 1001.8 |
| 20260904160556 | 24 | 171 | 22.5 | 46.7 | 0.00 | 0.00 | 0.00 | 25 | 1001.7 |
| 20260904160100 | 23 | 168 | 33.8 | 46.7 | 0.00 | 0.00 | 0.00 | 24 | 1001.8 |
| 20260904155555 | 23 | 155 | 29.0 | 46.7 | 0.00 | 0.00 | 0.00 | 25 | 1001.8 |
| 20260904155054 | 23 | 168 | 29.0 | 43.5 | 0.00 | 0.00 | 0.00 | 28 | 1001.7 |
| 20260904154553 | 23 | 181 | 30.6 | 43.5 | 0.00 | 0.00 | 0.00 | 24 | 1001.8 |
| 20260904154052 | 23 | 145 | 27.4 | 38.6 | 0.00 | 0.00 | 0.00 | 27 | 1001.7 |
| 20260904153551 | 23 | 156 | 25.7 | 37.0 | 0.00 | 0.00 | 0.00 | 28 | 1001.7 |
| 20260904153049 | 22 | 161 | 20.9 | 41.8 | 0.00 | 0.00 | 0.00 | 28 | 1001.8 |
| 20260904152549 | 22 | 136 | 25.7 | 48.3 | 0.00 | 0.00 | 0.00 | 28 | 1001.8 |
| 20260904152049 | 22 | 165 | 29.0 | 46.7 | 0.00 | 0.00 | 0.00 | 27 | 1001.9 |
| 20260904151550 | 22 | 156 | 25.7 | 41.8 | 0.00 | 0.00 | 0.00 | 26 | 1001.8 |
| 20260904151046 | 22 | 174 | 29.0 | 49.9 | 0.00 | 0.00 | 0.00 | 27 | 1001.9 |
| 20260904150546 | 22 | 163 | 37.0 | 49.9 | 0.00 | 0.00 | 0.00 | 27 | 1001.8 |
| 20260904150046 | 21 | 138 | 27.4 | 40.2 | 0.00 | 0.00 | 0.00 | 31 | 1001.9 |
| 20260904145546 | 21 | 143 | 24.1 | 38.6 | 0.00 | 0.00 | 0.00 | 30 | 1001.9 |
| 20260904145046 | 21 | 121 | 27.4 | 38.6 | 0.00 | 0.00 | 0.00 | 34 | 1002.0 |
| 20260904144602 | 20 | 150 | 22.5 | 30.6 | 0.00 | 0.00 | 0.00 | 34 | 1001.9 |
| 20260904144044 | 20 | 145 | 19.3 | 38.6 | 0.00 | 0.00 | 0.00 | 34 | 1001.8 |
| 20260904143544 | 20 | 134 | 22.5 | 38.6 | 0.00 | 0.00 | 0.00 | 34 | 1001.9 |
| 20260904143055 | 20 | 143 | 24.1 | 38.6 | 0.00 | 0.00 | 0.00 | 34 | 1001.8 |
| 20260904142544 | 19 | 135 | 27.4 | 38.6 | 0.00 | 0.00 | 0.00 | 33 | 1001.9 |
| 20260904142042 | 19 | 116 | 20.9 | 29.0 | 0.00 | 0.00 | 0.00 | 34 | 1002.0 |
| 20260904141542 | 19 | 122 | 19.3 | 32.2 | 0.00 | 0.00 | 0.00 | 34 | 1001.9 |
| 20260904141044 | 19 | 134 | 17.7 | 33.8 | 0.00 | 0.00 | 0.00 | 34 | 1001.9 |
| 20260904140543 | 19 | 130 | 24.1 | 30.6 | 0.00 | 0.00 | 0.00 | 33 | 1001.9 |
| 20260904140041 | 19 | 153 | 20.9 | 32.2 | 0.00 | 0.00 | 0.00 | 32 | 1001.9 |
| 20260904135541 | 19 | 143 | 19.3 | 30.6 | 0.00 | 0.00 | 0.00 | 30 | 1001.8 |
| 20260904135041 | 18 | 136 | 19.3 | 30.6 | 0.00 | 0.00 | 0.00 | 32 | 1001.7 |
| 20260904134539 | 18 | 145 | 22.5 | 32.2 | 0.00 | 0.00 | 0.00 | 32 | 1001.7 |
| 20260904134038 | 17 | 131 | 20.9 | 30.6 | 0.00 | 0.00 | 0.00 | 33 | 1001.7 |
| 20260904133541 | 17 | 124 | 24.1 | 30.6 | 0.00 | 0.00 | 0.00 | 32 | 1001.5 |
| 20260904133038 | 17 | 136 | 19.3 | 27.4 | 0.00 | 0.00 | 0.00 | 31 | 1001.5 |
| 20260904132537 | 17 | 151 | 16.1 | 32.2 | 0.00 | 0.00 | 0.00 | 32 | 1001.5 |
| 20260904132038 | 17 | 124 | 22.5 | 32.2 | 0.00 | 0.00 | 0.00 | 32 | 1001.5 |
| 20260904131535 | 17 | 139 | 20.9 | 32.2 | 0.00 | 0.00 | 0.00 | 33 | 1001.5 |
| 20260904131034 | 17 | 126 | 16.1 | 22.5 | 0.00 | 0.00 | 0.00 | 33 | 1001.4 |
| 20260904130533 | 17 | 163 | 14.5 | 25.7 | 0.00 | 0.00 | 0.00 | 31 | 1001.4 |
| 20260904130032 | 17 | 153 | 16.1 | 24.1 | 0.00 | 0.00 | 0.00 | 31 | 1001.4 |
| 20260904125531 | 17 | 143 | 17.7 | 24.1 | 0.00 | 0.00 | 0.00 | 31 | 1001.3 |
| 20260904125030 | 18 | 131 | 17.7 | 29.0 | 0.00 | 0.00 | 0.00 | 30 | 1001.3 |
| 20260904124529 | 18 | 170 | 20.9 | 32.2 | 0.00 | 0.00 | 0.00 | 30 | 1001.3 |
| 20260904124027 | 18 | 130 | 20.9 | 32.2 | 0.00 | 0.00 | 0.00 | 30 | 1001.2 |
| 20260904123528 | 18 | 134 | 19.3 | 35.4 | 0.00 | 0.00 | 0.00 | 29 | 1001.1 |
| 20260904123028 | 19 | 133 | 20.9 | 35.4 | 0.00 | 0.00 | 0.00 | 29 | 1001.1 |
| 20260904122530 | 19 | 110 | 22.5 | 35.4 | 0.00 | 0.00 | 0.00 | 28 | 1001.1 |
| 20260904122026 | 20 | 131 | 24.1 | 35.4 | 0.00 | 0.00 | 0.00 | 28 | 1001.0 |
| 20260904121526 | 19 | 134 | 20.9 | 32.2 | 0.00 | 0.00 | 0.00 | 29 | 1001.0 |
| 20260904121027 | 18 | 148 | 20.9 | 38.6 | 0.00 | 0.00 | 0.00 | 30 | 1000.9 |
| 20260904120524 | 18 | 208 | 20.9 | 29.0 | 0.00 | 0.00 | 0.00 | 29 | 1001.0 |
| 20260904120024 | 18 | 154 | 19.3 | 29.0 | 0.00 | 0.00 | 0.00 | 29 | 1001.1 |
| 20260904115523 | 18 | 151 | 17.7 | 29.0 | 0.00 | 0.00 | 0.00 | 29 | 1001.2 |
| 20260904115023 | 17 | 161 | 19.3 | 25.7 | 0.00 | 0.00 | 0.00 | 29 | 1001.2 |
| 20260904114521 | 18 | 147 | 16.1 | 27.4 | 0.00 | 0.00 | 0.00 | 29 | 1001.2 |
| 20260904114021 | 18 | 161 | 19.3 | 27.4 | 0.00 | 0.00 | 0.00 | 29 | 1001.2 |
| 20260904113521 | 18 | 145 | 17.7 | 27.4 | 0.00 | 0.00 | 0.00 | 29 | 1001.2 |
| 20260904113020 | 18 | 149 | 16.1 | 27.4 | 0.00 | 0.00 | 0.00 | 28 | 1001.1 |
| 20260904112517 | 18 | 160 | 16.1 | 25.7 | 0.00 | 0.00 | 0.00 | 27 | 1001.2 |
| 20260904112017 | 19 | 142 | 20.9 | 37.0 | 0.00 | 0.00 | 0.00 | 27 | 1001.2 |
| 20260904111516 | 19 | 155 | 19.3 | 37.0 | 0.00 | 0.00 | 0.00 | 26 | 1001.1 |
| 20260904111016 | 19 | 145 | 20.9 | 30.6 | 0.00 | 0.00 | 0.00 | 27 | 1001.1 |
| 20260904110515 | 19 | 161 | 20.9 | 33.8 | 0.00 | 0.00 | 0.00 | 27 | 1001.2 |
| 20260904110015 | 20 | 166 | 22.5 | 33.8 | 0.00 | 0.00 | 0.00 | 26 | 1001.3 |
| 20260904105515 | 20 | 142 | 19.3 | 46.7 | 0.00 | 0.00 | 0.00 | 26 | 1001.1 |
| 20260904105014 | 20 | 148 | 24.1 | 40.2 | 0.00 | 0.00 | 0.00 | 26 | 1001.2 |
| 20260904104514 | 20 | 147 | 24.1 | 33.8 | 0.00 | 0.00 | 0.00 | 27 | 1001.1 |
| 20260904104013 | 20 | 152 | 20.9 | 35.4 | 0.00 | 0.00 | 0.00 | 27 | 1001.1 |
| 20260904103513 | 20 | 142 | 27.4 | 43.5 | 0.00 | 0.00 | 0.00 | 25 | 1001.1 |
| 20260904103013 | 20 | 165 | 24.1 | 43.5 | 0.00 | 0.00 | 0.00 | 26 | 1001.1 |
| 20260904102512 | 20 | 129 | 29.0 | 40.2 | 0.00 | 0.00 | 0.00 | 26 | 1001.2 |
| 20260904102013 | 21 | 142 | 22.5 | 33.8 | 0.00 | 0.00 | 0.00 | 25 | 1001.2 |
| 20260904101512 | 20 | 136 | 19.3 | 37.0 | 0.00 | 0.00 | 0.00 | 26 | 1001.1 |
| 20260904101012 | 20 | 128 | 22.5 | 40.2 | 0.00 | 0.00 | 0.00 | 25 | 1001.1 |
| 20260904100512 | 21 | 170 | 16.1 | 40.2 | 0.00 | 0.00 | 0.00 | 24 | 1001.1 |
| 20260904100012 | 21 | 174 | 20.9 | 33.8 | 0.00 | 0.00 | 0.00 | 24 | 1001.1 |
| 20260904095512 | 20 | 151 | 22.5 | 30.6 | 0.00 | 0.00 | 0.00 | 26 | 1001.1 |
| 20260904095013 | 20 | 147 | 20.9 | 30.6 | 0.00 | 0.00 | 0.00 | 25 | 1001.1 |
| 20260904094514 | 20 | 165 | 22.5 | 30.6 | 0.00 | 0.00 | 0.00 | 25 | 1001.1 |
| 20260904094010 | 20 | 156 | 19.3 | 32.2 | 0.00 | 0.00 | 0.00 | 25 | 1001.2 |
| 20260904093510 | 20 | 138 | 20.9 | 33.8 | 0.00 | 0.00 | 0.00 | 25 | 1001.2 |
| 20260904093009 | 20 | 142 | 19.3 | 32.2 | 0.00 | 0.00 | 0.00 | 26 | 1001.1 |
| 20260904092509 | 20 | 130 | 20.9 | 30.6 | 0.00 | 0.00 | 0.00 | 26 | 1001.2 |
| 20260904092008 | 20 | 168 | 19.3 | 27.4 | 0.00 | 0.00 | 0.00 | 26 | 1001.2 |
| 20260904091523 | 20 | 138 | 17.7 | 27.4 | 0.00 | 0.00 | 0.00 | 26 | 1001.1 |
| 20260904091007 | 20 | 158 | 20.9 | 32.2 | 0.00 | 0.00 | 0.00 | 24 | 1001.1 |
| 20260904090509 | 20 | 154 | 25.7 | 33.8 | 0.00 | 0.00 | 0.00 | 25 | 1001.1 |
| 20260904090013 | 20 | 135 | 24.1 | 32.2 | 0.00 | 0.00 | 0.00 | 25 | 1001.1 |
| 20260904085507 | 21 | 124 | 22.5 | 40.2 | 0.00 | 0.00 | 0.00 | 25 | 1001.2 |
| 20260904085011 | 21 | 132 | 29.0 | 40.2 | 0.00 | 0.00 | 0.00 | 24 | 1001.1 |
| 20260904084610 | 21 | 132 | 24.1 | 38.6 | 0.00 | 0.00 | 0.00 | 24 | 1001.1 |
| 20260904084008 | 21 | 130 | 27.4 | 38.6 | 0.00 | 0.00 | 0.00 | 23 | 1001.1 |
| 20260904083504 | 21 | 128 | 24.1 | 41.8 | 0.00 | 0.00 | 0.00 | 23 | 1001.0 |
| 20260904083009 | 22 | 138 | 25.7 | 43.5 | 0.00 | 0.00 | 0.00 | 23 | 1001.0 |
| 20260904082503 | 22 | 119 | 20.9 | 43.5 | 0.00 | 0.00 | 0.00 | 22 | 1000.8 |
| 20260904082005 | 22 | 122 | 29.0 | 46.7 | 0.00 | 0.00 | 0.00 | 22 | 1000.9 |
| 20260904081505 | 21 | 113 | 35.4 | 46.7 | 0.00 | 0.00 | 0.00 | 22 | 1000.8 |
| 20260904081002 | 21 | 116 | 22.5 | 35.4 | 0.00 | 0.00 | 0.00 | 24 | 1000.9 |
| 20260904080514 | 21 | 140 | 24.1 | 38.6 | 0.00 | 0.00 | 0.00 | 23 | 1001.0 |
| 20260904080003 | 21 | 143 | 22.5 | 40.2 | 0.00 | 0.00 | 0.00 | 23 | 1000.9 |
| 20260904075501 | 21 | 153 | 27.4 | 41.8 | 0.00 | 0.00 | 0.00 | 23 | 1000.9 |
| 20260904075102 | 21 | 146 | 25.7 | 41.8 | 0.00 | 0.00 | 0.00 | 23 | 1001.0 |
| 20260904074609 | 21 | 120 | 25.7 | 41.8 | 0.00 | 0.00 | 0.00 | 24 | 1000.8 |
| 20260904074059 | 21 | 160 | 30.6 | 38.6 | 0.00 | 0.00 | 0.00 | 23 | 1000.8 |
| 20260904073557 | 21 | 134 | 25.7 | 40.2 | 0.00 | 0.00 | 0.00 | 24 | 1000.8 |
| 20260904073057 | 20 | 146 | 22.5 | 35.4 | 0.00 | 0.00 | 0.00 | 25 | 1000.8 |
| 20260904072556 | 20 | 127 | 24.1 | 35.4 | 0.00 | 0.00 | 0.00 | 25 | 1000.9 |
| 20260904072055 | 20 | 143 | 24.1 | 33.8 | 0.00 | 0.00 | 0.00 | 25 | 1000.8 |
| 20260904071623 | 20 | 127 | 22.5 | 30.6 | 0.00 | 0.00 | 0.00 | 27 | 1000.7 |
| 20260904071054 | 20 | 153 | 17.7 | 40.2 | 0.00 | 0.00 | 0.00 | 26 | 1000.6 |
| 20260904070554 | 21 | 151 | 27.4 | 40.2 | 0.00 | 0.00 | 0.00 | 25 | 1000.5 |
| 20260904070106 | 21 | 143 | 25.7 | 35.4 | 0.00 | 0.00 | 0.00 | 25 | 1000.5 |
| 20260904065551 | 21 | 137 | 20.9 | 41.8 | 0.00 | 0.00 | 0.00 | 24 | 1000.5 |
| 20260904065051 | 21 | 138 | 27.4 | 41.8 | 0.00 | 0.00 | 0.00 | 24 | 1000.5 |
| 20260904064604 | 22 | 138 | 25.7 | 35.4 | 0.00 | 0.00 | 0.00 | 24 | 1000.5 |
| 20260904064052 | 21 | 136 | 24.1 | 32.2 | 0.00 | 0.00 | 0.00 | 23 | 1000.6 |
| 20260904063550 | 22 | 164 | 16.1 | 37.0 | 0.00 | 0.00 | 0.00 | 22 | 1000.6 |
| 20260904063054 | 22 | 138 | 24.1 | 37.0 | 0.00 | 0.00 | 0.00 | 22 | 1000.6 |
| 20260904062551 | 22 | 136 | 22.5 | 35.4 | 0.00 | 0.00 | 0.00 | 23 | 1000.6 |
| 20260904062047 | 22 | 153 | 22.5 | 35.4 | 0.00 | 0.00 | 0.00 | 23 | 1000.5 |
| 20260904061547 | 22 | 165 | 22.5 | 33.8 | 0.00 | 0.00 | 0.00 | 23 | 1000.5 |
| 20260904061047 | 22 | 134 | 24.1 | 33.8 | 0.00 | 0.00 | 0.00 | 23 | 1000.6 |
| 20260904060545 | 21 | 144 | 20.9 | 32.2 | 0.00 | 0.00 | 0.00 | 24 | 1000.5 |
| 20260904060044 | 21 | 153 | 22.5 | 30.6 | 0.00 | 0.00 | 0.00 | 27 | 1000.5 |
| 20260904055544 | 20 | 145 | 19.3 | 32.2 | 0.00 | 0.00 | 0.00 | 26 | 1000.6 |
| 20260904055040 | 21 | 143 | 19.3 | 45.1 | 0.00 | 0.00 | 0.00 | 26 | 1000.5 |
| 20260904054539 | 22 | 143 | 27.4 | 45.1 | 0.00 | 0.00 | 0.00 | 24 | 1000.6 |
| 20260904054038 | 22 | 126 | 22.5 | 41.8 | 0.00 | 0.00 | 0.00 | 26 | 1000.5 |
| 20260904053536 | 22 | 129 | 30.6 | 41.8 | 0.00 | 0.00 | 0.00 | 25 | 1000.6 |
| 20260904053042 | 22 | 128 | 24.1 | 35.4 | 0.00 | 0.00 | 0.00 | 26 | 1000.5 |
| 20260904052537 | 22 | 134 | 24.1 | 45.1 | 0.00 | 0.00 | 0.00 | 26 | 1000.5 |
| 20260904052036 | 22 | 150 | 29.0 | 45.1 | 0.00 | 0.00 | 0.00 | 26 | 1000.4 |
| 20260904051535 | 22 | 145 | 22.5 | 32.2 | 0.00 | 0.00 | 0.00 | 26 | 1000.4 |
| 20260904051034 | 22 | 170 | 19.3 | 41.8 | 0.00 | 0.00 | 0.00 | 24 | 1000.5 |
| 20260904050532 | 22 | 136 | 27.4 | 41.8 | 0.00 | 0.00 | 0.00 | 25 | 1000.5 |
| 20260904050033 | 23 | 160 | 27.4 | 53.1 | 0.00 | 0.00 | 0.00 | 24 | 1000.5 |
| 20260904045529 | 23 | 127 | 27.4 | 40.2 | 0.00 | 0.00 | 0.00 | 24 | 1000.5 |
| 20260904045028 | 23 | 136 | 25.7 | 45.1 | 0.00 | 0.00 | 0.00 | 25 | 1000.5 |
| 20260904044526 | 23 | 145 | 25.7 | 46.7 | 0.00 | 0.00 | 0.00 | 25 | 1000.5 |
| 20260904044024 | 23 | 124 | 30.6 | 46.7 | 0.00 | 0.00 | 0.00 | 26 | 1000.6 |
| 20260904043523 | 23 | 97 | 27.4 | 38.6 | 0.00 | 0.00 | 0.00 | 27 | 1000.5 |
| 20260904043021 | 23 | 144 | 24.1 | 46.7 | 0.00 | 0.00 | 0.00 | 25 | 1000.6 |
| 20260904042521 | 23 | 138 | 25.7 | 37.0 | 0.00 | 0.00 | 0.00 | 25 | 1000.6 |
| 20260904042020 | 23 | 134 | 22.5 | 37.0 | 0.00 | 0.00 | 0.00 | 26 | 1000.5 |
| 20260904041524 | 23 | 113 | 27.4 | 35.4 | 0.00 | 0.00 | 0.00 | 25 | 1000.5 |
| 20260904041015 | 23 | 149 | 24.1 | 40.2 | 0.00 | 0.00 | 0.00 | 25 | 1000.4 |
| 20260904040518 | 23 | 134 | 25.7 | 48.3 | 0.00 | 0.00 | 0.00 | 25 | 1000.4 |
| 20260904040013 | 23 | 127 | 29.0 | 45.1 | 0.00 | 0.00 | 0.00 | 25 | 1000.4 |
| 20260904035512 | 24 | 159 | 22.5 | 45.1 | 0.00 | 0.00 | 0.00 | 24 | 1000.3 |
| 20260904035010 | 23 | 115 | 32.2 | 45.1 | 0.00 | 0.00 | 0.00 | 25 | 1000.1 |
| 20260904034508 | 23 | 95 | 25.7 | 37.0 | 0.00 | 0.00 | 0.00 | 25 | 1000.2 |
| 20260904034007 | 23 | 150 | 19.3 | 33.8 | 0.00 | 0.00 | 0.00 | 25 | 1000.3 |
| 20260904033506 | 23 | 145 | 22.5 | 32.2 | 0.00 | 0.00 | 0.00 | 24 | 1000.2 |
| 20260904033004 | 23 | 127 | 24.1 | 33.8 | 0.00 | 0.00 | 0.00 | 24 | 1000.2 |
| 20260904032502 | 23 | 137 | 22.5 | 33.8 | 0.00 | 0.00 | 0.00 | 24 | 1000.3 |
| 20260904032001 | 23 | 152 | 24.1 | 38.6 | 0.00 | 0.00 | 0.00 | 23 | 1000.3 |
| 20260904031611 | 23 | 143 | 22.5 | 38.6 | 0.00 | 0.00 | 0.00 | 23 | 1000.2 |
| 20260904031058 | 24 | 141 | 24.1 | 41.8 | 0.00 | 0.00 | 0.00 | 24 | 1000.1 |
| 20260904030557 | 24 | 138 | 24.1 | 41.8 | 0.00 | 0.00 | 0.00 | 24 | 1000.1 |
| 20260904030055 | 24 | 136 | 27.4 | 46.7 | 0.00 | 0.00 | 0.00 | 23 | 1000.1 |
| 20260904025554 | 24 | 126 | 32.2 | 46.7 | 0.00 | 0.00 | 0.00 | 23 | 1000.1 |
| 20260904025053 | 23 | 137 | 27.4 | 35.4 | 0.00 | 0.00 | 0.00 | 24 | 1000.0 |
| 20260904024550 | 23 | 118 | 27.4 | 35.4 | 0.00 | 0.00 | 0.00 | 24 | 999.9 |
| 20260904024051 | 23 | 138 | 19.3 | 29.0 | 0.00 | 0.00 | 0.00 | 25 | 999.9 |
| 20260904023547 | 23 | 113 | 20.9 | 29.0 | 0.00 | 0.00 | 0.00 | 25 | 999.9 |
| 20260904023046 | 23 | 124 | 22.5 | 32.2 | 0.00 | 0.00 | 0.00 | 25 | 1000.1 |
| 20260904022545 | 23 | 155 | 17.7 | 24.1 | 0.00 | 0.00 | 0.00 | 24 | 1000.0 |
| 20260904022044 | 24 | 152 | 17.7 | 33.8 | 0.00 | 0.00 | 0.00 | 23 | 999.9 |
| 20260904021549 | 24 | 176 | 25.7 | 38.6 | 0.00 | 0.00 | 0.00 | 22 | 1000.0 |
| 20260904021041 | 24 | 185 | 27.4 | 38.6 | 0.00 | 0.00 | 0.00 | 22 | 999.8 |
| 20260904020540 | 24 | 197 | 25.7 | 40.2 | 0.00 | 0.00 | 0.00 | 22 | 999.9 |
| 20260904020042 | 24 | 194 | 25.7 | 40.2 | 0.00 | 0.00 | 0.00 | 22 | 1000.0 |
| 20260904015536 | 24 | 176 | 17.7 | 30.6 | 0.00 | 0.00 | 0.00 | 22 | 999.9 |
| 20260904015035 | 25 | 157 | 20.9 | 38.6 | 0.00 | 0.00 | 0.00 | 22 | 1000.0 |
| 20260904014533 | 25 | 155 | 22.5 | 38.6 | 0.00 | 0.00 | 0.00 | 21 | 1000.1 |
| 20260904014032 | 25 | 161 | 22.5 | 32.2 | 0.00 | 0.00 | 0.00 | 21 | 1000.1 |
| 20260904013534 | 25 | 161 | 20.9 | 38.6 | 0.00 | 0.00 | 0.00 | 21 | 1000.0 |
| 20260904013029 | 26 | 165 | 25.7 | 38.6 | 0.00 | 0.00 | 0.00 | 21 | 1000.1 |
| 20260904012527 | 26 | 158 | 29.0 | 45.1 | 0.00 | 0.00 | 0.00 | 21 | 1000.1 |
| 20260904012026 | 26 | 142 | 32.2 | 45.1 | 0.00 | 0.00 | 0.00 | 21 | 1000.1 |
| 20260904011525 | 26 | 168 | 25.7 | 35.4 | 0.00 | 0.00 | 0.00 | 20 | 1000.1 |
| 20260904011024 | 26 | 202 | 29.0 | 35.4 | 0.00 | 0.00 | 0.00 | 21 | 1000.2 |
| 20260904010524 | 26 | 190 | 24.1 | 48.3 | 0.00 | 0.00 | 0.00 | 20 | 1000.1 |
| 20260904010022 | 26 | 174 | 30.6 | 48.3 | 0.00 | 0.00 | 0.00 | 20 | 1000.2 |
| 20260904005519 | 26 | 145 | 24.1 | 38.6 | 0.00 | 0.00 | 0.00 | 20 | 1000.2 |
| 20260904005020 | 26 | 191 | 25.7 | 40.2 | 0.00 | 0.00 | 0.00 | 20 | 1000.3 |
| 20260904004515 | 27 | 191 | 29.0 | 40.2 | 0.00 | 0.00 | 0.00 | 20 | 1000.3 |
| 20260904004013 | 27 | 165 | 25.7 | 49.9 | 0.00 | 0.00 | 0.00 | 20 | 1000.3 |
| 20260904003511 | 27 | 194 | 32.2 | 49.9 | 0.00 | 0.00 | 0.00 | 20 | 1000.4 |
| 20260904003011 | 27 | 163 | 25.7 | 40.2 | 0.00 | 0.00 | 0.00 | 20 | 1000.3 |
| 20260904002509 | 27 | 174 | 24.1 | 40.2 | 0.00 | 0.00 | 0.00 | 20 | 1000.3 |
| 20260904002007 | 27 | 177 | 29.0 | 48.3 | 0.00 | 0.00 | 0.00 | 20 | 1000.3 |
| 20260904001505 | 27 | 172 | 25.7 | 41.8 | 0.00 | 0.00 | 0.00 | 22 | 1000.3 |
| 20260904001005 | 27 | 153 | 20.9 | 37.0 | 0.00 | 0.00 | 0.00 | 22 | 1000.3 |
| 20260904000506 | 27 | 144 | 25.7 | 35.4 | 0.00 | 0.00 | 0.00 | 22 | 1000.3 |
| 20260904000002 | 27 | 147 | 20.9 | 33.8 | 0.00 | 0.00 | 0.00 | 21 | 1000.4 |
| 20260903235603 | 27 | 142 | 25.7 | 35.4 | 0.00 | 0.00 | 0.00 | 22 | 1000.4 |
| 20260903235058 | 27 | 157 | 24.1 | 35.4 | 0.00 | 0.00 | 0.00 | 20 | 1000.5 |
| 20260903234557 | 28 | 167 | 25.7 | 37.0 | 0.00 | 0.00 | 0.00 | 20 | 1000.5 |
| 20260903234055 | 28 | 151 | 29.0 | 35.4 | 0.00 | 0.00 | 0.00 | 20 | 1000.6 |
| 20260903233554 | 28 | 140 | 22.5 | 40.2 | 0.00 | 0.00 | 0.00 | 20 | 1000.5 |
| 20260903233053 | 28 | 167 | 25.7 | 40.2 | 0.00 | 0.00 | 0.00 | 19 | 1000.7 |
| 20260903232551 | 28 | 162 | 20.9 | 30.6 | 0.00 | 0.00 | 0.00 | 21 | 1000.7 |
| 20260903232049 | 27 | 147 | 24.1 | 41.8 | 0.00 | 0.00 | 0.00 | 21 | 1000.7 |
| 20260903231554 | 26 | 155 | 25.7 | 45.1 | 0.00 | 0.00 | 0.00 | 21 | 1000.9 |
| 20260903231046 | 26 | 144 | 22.5 | 35.4 | 0.00 | 0.00 | 0.00 | 21 | 1000.8 |
| 20260903230547 | 26 | 184 | 22.5 | 35.4 | 0.00 | 0.00 | 0.00 | 20 | 1000.9 |
| 20260903230048 | 26 | 190 | 25.7 | 35.4 | 0.00 | 0.00 | 0.00 | 21 | 1001.1 |
| 20260903225543 | 26 | 145 | 25.7 | 38.6 | 0.00 | 0.00 | 0.00 | 21 | 1001.0 |
| 20260903225040 | 27 | 160 | 27.4 | 41.8 | 0.00 | 0.00 | 0.00 | 20 | 1001.3 |
| 20260903224544 | 27 | 168 | 22.5 | 41.8 | 0.00 | 0.00 | 0.00 | 20 | 1001.4 |
| 20260903224042 | 27 | 169 | 20.9 | 41.8 | 0.00 | 0.00 | 0.00 | 21 | 1001.4 |
| 20260903223536 | 27 | 190 | 24.1 | 32.2 | 0.00 | 0.00 | 0.00 | 22 | 1001.4 |
| 20260903223036 | 27 | 161 | 25.7 | 37.0 | 0.00 | 0.00 | 0.00 | 21 | 1001.4 |
| 20260903222535 | 27 | 172 | 17.7 | 33.8 | 0.00 | 0.00 | 0.00 | 21 | 1001.6 |
| 20260903222032 | 27 | 153 | 22.5 | 37.0 | 0.00 | 0.00 | 0.00 | 21 | 1001.7 |
| 20260903221544 | 27 | 163 | 24.1 | 37.0 | 0.00 | 0.00 | 0.00 | 21 | 1001.9 |
| 20260903221032 | 27 | 195 | 19.3 | 37.0 | 0.00 | 0.00 | 0.00 | 20 | 1001.8 |
| 20260903220527 | 27 | 192 | 24.1 | 38.6 | 0.00 | 0.00 | 0.00 | 21 | 1001.8 |
| 20260903220026 | 27 | 182 | 16.1 | 33.8 | 0.00 | 0.00 | 0.00 | 20 | 1001.9 |
| 20260903215526 | 27 | 184 | 22.5 | 35.4 | 0.00 | 0.00 | 0.00 | 19 | 1001.9 |
| 20260903215023 | 27 | 181 | 29.0 | 35.4 | 0.00 | 0.00 | 0.00 | 20 | 1002.0 |
| 20260903214522 | 27 | 167 | 20.9 | 38.6 | 0.00 | 0.00 | 0.00 | 20 | 1002.0 |
| 20260903214020 | 27 | 178 | 24.1 | 38.6 | 0.00 | 0.00 | 0.00 | 19 | 1002.1 |
| 20260903213518 | 27 | 138 | 24.1 | 35.4 | 0.00 | 0.00 | 0.00 | 19 | 1002.1 |
| 20260903213021 | 26 | 182 | 19.3 | 37.0 | 0.00 | 0.00 | 0.00 | 20 | 1001.9 |
| 20260903212515 | 26 | 179 | 24.1 | 37.0 | 0.00 | 0.00 | 0.00 | 20 | 1002.2 |
| 20260903212016 | 27 | 149 | 24.1 | 33.8 | 0.00 | 0.00 | 0.00 | 21 | 1002.1 |
| 20260903211512 | 27 | 185 | 17.7 | 27.4 | 0.00 | 0.00 | 0.00 | 21 | 1002.2 |
| 20260903211014 | 27 | 151 | 16.1 | 30.6 | 0.00 | 0.00 | 0.00 | 21 | 1002.3 |
| 20260903210509 | 26 | 152 | 22.5 | 41.8 | 0.00 | 0.00 | 0.00 | 21 | 1002.4 |
| 20260903210009 | 26 | 159 | 29.0 | 45.1 | 0.00 | 0.00 | 0.00 | 21 | 1002.5 |
| 20260903205506 | 26 | 132 | 22.5 | 38.6 | 0.00 | 0.00 | 0.00 | 21 | 1002.5 |
| 20260903205005 | 26 | 164 | 20.9 | 32.2 | 0.00 | 0.00 | 0.00 | 23 | 1002.6 |
| 20260903204506 | 26 | 119 | 17.7 | 32.2 | 0.00 | 0.00 | 0.00 | 23 | 1002.8 |
| 20260903204000 | 26 | 156 | 17.7 | 25.7 | 0.00 | 0.00 | 0.00 | 22 | 1002.9 |
| 20260903203601 | 26 | 163 | 11.3 | 30.6 | 0.00 | 0.00 | 0.00 | 23 | 1003.0 |
| 20260903203059 | 26 | 135 | 14.5 | 30.6 | 0.00 | 0.00 | 0.00 | 22 | 1003.0 |
| 20260903202557 | 26 | 188 | 17.7 | 37.0 | 0.00 | 0.00 | 0.00 | 21 | 1003.1 |
| 20260903202056 | 26 | 129 | 24.1 | 37.0 | 0.00 | 0.00 | 0.00 | 22 | 1003.2 |
| 20260903201554 | 26 | 195 | 16.1 | 38.6 | 0.00 | 0.00 | 0.00 | 21 | 1003.2 |
| 20260903201052 | 26 | 147 | 20.9 | 38.6 | 0.00 | 0.00 | 0.00 | 21 | 1003.4 |